Location: Courcelles
(49.2596°N, 1.7419°E)
Time: 21:45:13
(UTC+00:00)

IRAS Rocket - Pass Details

Date: 17 November 2025
Orbit: 845 x 876 km, 100.1° (Epoch: 04 December)

Event Time Altitude Azimuth Distance (km) Brightness Sun altitude
Rises 17:44:34 0° 150° (SSE) 3,438 7.2 -15.4°
Reaches altitude 10° 17:46:57 10° 147° (SSE) 2,500 6.4 -15.8°
Maximum altitude 17:52:25 63° 68° (ENE) 960 4.2 -16.7°
Drops below altitude 10° 17:57:52 10° 349° (NNW) 2,496 6.7 -17.6°
Sets 18:00:15 0° 346° (NNW) 3,432 7.4 -18.0°
